Year,Month,Day,Hour,Minute,Value (Times are PST for temperature in C)
2018,04,27,00,00,13.10
2018,04,27,00,01,13.00
2018,04,27,00,02,12.90
2018,04,27,00,03,12.90
2018,04,27,00,04,12.80
2018,04,27,00,05,12.80
2018,04,27,00,06,12.80
2018,04,27,00,07,12.80
2018,04,27,00,08,12.80
2018,04,27,00,09,12.80
2018,04,27,00,10,12.80
2018,04,27,00,11,12.90
2018,04,27,00,12,13.00
2018,04,27,00,13,13.10
2018,04,27,00,14,13.20
2018,04,27,00,15,13.30
2018,04,27,00,16,13.40
2018,04,27,00,17,13.40
2018,04,27,00,18,13.60
2018,04,27,00,19,13.70
2018,04,27,00,20,13.70
2018,04,27,00,21,13.80
2018,04,27,00,22,13.90
2018,04,27,00,23,13.90
2018,04,27,00,24,14.00
2018,04,27,00,25,14.00
2018,04,27,00,26,14.10
2018,04,27,00,27,14.10
2018,04,27,00,28,14.10
2018,04,27,00,29,14.10
2018,04,27,00,30,14.10
2018,04,27,00,31,14.10
2018,04,27,00,32,14.10
2018,04,27,00,33,14.00
2018,04,27,00,34,14.00
2018,04,27,00,35,13.90
2018,04,27,00,36,13.90
2018,04,27,00,37,13.80
2018,04,27,00,38,13.80
2018,04,27,00,39,13.70
2018,04,27,00,40,13.70
2018,04,27,00,41,13.60
2018,04,27,00,42,13.60
2018,04,27,00,43,13.50
2018,04,27,00,44,13.50
2018,04,27,00,45,13.40
2018,04,27,00,46,13.40
2018,04,27,00,47,13.40
2018,04,27,00,48,13.30
2018,04,27,00,49,13.30
2018,04,27,00,50,13.20
2018,04,27,00,51,13.10
2018,04,27,00,52,13.10
2018,04,27,00,53,13.00
2018,04,27,00,54,12.90
2018,04,27,00,55,12.80
2018,04,27,00,56,12.70
2018,04,27,00,57,12.70
2018,04,27,00,58,12.60
2018,04,27,00,59,12.50
2018,04,27,01,00,12.50
2018,04,27,01,01,12.40
2018,04,27,01,02,12.40
2018,04,27,01,03,12.40
2018,04,27,01,04,12.30
2018,04,27,01,05,12.30
2018,04,27,01,06,12.20
2018,04,27,01,07,12.20
2018,04,27,01,08,12.20
2018,04,27,01,09,12.10
2018,04,27,01,10,12.00
2018,04,27,01,11,12.00
2018,04,27,01,12,11.90
2018,04,27,01,13,11.90
2018,04,27,01,14,11.90
2018,04,27,01,15,11.90
2018,04,27,01,16,11.90
2018,04,27,01,17,11.90
2018,04,27,01,18,11.90
2018,04,27,01,19,11.90
2018,04,27,01,20,11.90
2018,04,27,01,21,11.90
2018,04,27,01,22,12.00
2018,04,27,01,23,12.00
2018,04,27,01,24,12.00
2018,04,27,01,25,12.10
2018,04,27,01,26,12.10
2018,04,27,01,27,12.10
2018,04,27,01,28,12.20
2018,04,27,01,29,12.40
2018,04,27,01,30,12.50
2018,04,27,01,31,12.60
2018,04,27,01,32,12.70
2018,04,27,01,33,12.90
2018,04,27,01,34,13.00
2018,04,27,01,35,13.10
2018,04,27,01,36,13.20
2018,04,27,01,37,13.20
2018,04,27,01,38,13.20
2018,04,27,01,39,13.20
2018,04,27,01,40,13.20
2018,04,27,01,41,13.10
2018,04,27,01,42,13.10
2018,04,27,01,43,13.00
2018,04,27,01,44,13.00
2018,04,27,01,45,12.90
2018,04,27,01,46,12.90
2018,04,27,01,47,12.90
2018,04,27,01,48,12.80
2018,04,27,01,49,12.80
2018,04,27,01,50,12.80
2018,04,27,01,51,12.80
2018,04,27,01,52,12.80
2018,04,27,01,53,12.80
2018,04,27,01,54,12.80
2018,04,27,01,55,12.80
2018,04,27,01,56,12.80
2018,04,27,01,57,12.80
2018,04,27,01,58,12.70
2018,04,27,01,59,12.70
2018,04,27,02,00,12.60
2018,04,27,02,01,12.50
2018,04,27,02,02,12.50
2018,04,27,02,03,12.40
2018,04,27,02,04,12.40
2018,04,27,02,05,12.30
2018,04,27,02,06,12.30
2018,04,27,02,07,12.20
2018,04,27,02,08,12.20
2018,04,27,02,09,12.10
2018,04,27,02,10,12.10
2018,04,27,02,11,12.00
2018,04,27,02,12,11.90
2018,04,27,02,13,11.90
2018,04,27,02,14,11.80
2018,04,27,02,15,11.80
2018,04,27,02,16,11.70
2018,04,27,02,17,11.70
2018,04,27,02,18,11.60
2018,04,27,02,19,11.60
2018,04,27,02,20,11.60
2018,04,27,02,21,11.50
2018,04,27,02,22,11.50
2018,04,27,02,23,11.50
2018,04,27,02,24,11.40
2018,04,27,02,25,11.40
2018,04,27,02,26,11.40
2018,04,27,02,27,11.30
2018,04,27,02,28,11.30
2018,04,27,02,29,11.30
2018,04,27,02,30,11.30
2018,04,27,02,31,11.20
2018,04,27,02,32,11.20
2018,04,27,02,33,11.20
2018,04,27,02,34,11.20
2018,04,27,02,35,11.20
2018,04,27,02,36,11.20
2018,04,27,02,37,11.10
2018,04,27,02,38,11.10
2018,04,27,02,39,11.10
2018,04,27,02,40,11.10
2018,04,27,02,41,11.10
2018,04,27,02,42,11.00
2018,04,27,02,43,11.00
2018,04,27,02,44,11.00
2018,04,27,02,45,11.00
2018,04,27,02,46,11.00
2018,04,27,02,47,10.90
2018,04,27,02,48,10.90
2018,04,27,02,49,10.90
2018,04,27,02,50,10.90
2018,04,27,02,51,10.90
2018,04,27,02,52,10.90
2018,04,27,02,53,10.90
2018,04,27,02,54,10.90
2018,04,27,02,55,10.90
2018,04,27,02,56,10.90
2018,04,27,02,57,10.90
2018,04,27,02,58,10.90
2018,04,27,02,59,10.90
2018,04,27,03,00,10.90
2018,04,27,03,01,10.80
2018,04,27,03,02,10.80
2018,04,27,03,03,10.80
2018,04,27,03,04,10.80
2018,04,27,03,05,10.80
2018,04,27,03,06,10.70
2018,04,27,03,07,10.70
2018,04,27,03,08,10.70
2018,04,27,03,09,10.70
2018,04,27,03,10,10.80
2018,04,27,03,11,10.80
2018,04,27,03,12,10.80
2018,04,27,03,13,10.80
2018,04,27,03,14,10.80
2018,04,27,03,15,10.90
2018,04,27,03,16,10.90
2018,04,27,03,17,10.90
2018,04,27,03,18,10.90
2018,04,27,03,19,10.90
2018,04,27,03,20,10.90
2018,04,27,03,21,10.90
2018,04,27,03,22,10.90
2018,04,27,03,23,11.00
2018,04,27,03,24,11.00
2018,04,27,03,25,11.10
2018,04,27,03,26,11.10
2018,04,27,03,27,11.10
2018,04,27,03,28,11.10
2018,04,27,03,29,11.10
2018,04,27,03,30,11.10
2018,04,27,03,31,11.10
2018,04,27,03,32,11.10
2018,04,27,03,33,11.10
2018,04,27,03,34,11.10
2018,04,27,03,35,11.10
2018,04,27,03,36,11.10
2018,04,27,03,37,11.10
2018,04,27,03,38,11.10
2018,04,27,03,39,11.10
2018,04,27,03,40,11.10
2018,04,27,03,41,11.00
2018,04,27,03,42,11.00
2018,04,27,03,43,10.90
2018,04,27,03,44,10.90
2018,04,27,03,45,10.90
2018,04,27,03,46,10.90
2018,04,27,03,47,10.90
2018,04,27,03,48,10.90
2018,04,27,03,49,10.90
2018,04,27,03,50,10.90
2018,04,27,03,51,10.90
2018,04,27,03,52,10.90
2018,04,27,03,53,10.90
2018,04,27,03,54,11.00
2018,04,27,03,55,11.00
2018,04,27,03,56,11.10
2018,04,27,03,57,11.10
2018,04,27,03,58,11.10
2018,04,27,03,59,11.10
2018,04,27,04,00,11.10
2018,04,27,04,01,11.00
2018,04,27,04,02,11.00
2018,04,27,04,03,11.00
2018,04,27,04,04,10.90
2018,04,27,04,05,10.90
2018,04,27,04,06,10.90
2018,04,27,04,07,10.90
2018,04,27,04,08,10.80
2018,04,27,04,09,10.80
2018,04,27,04,10,10.80
2018,04,27,04,11,10.80
2018,04,27,04,12,10.80
2018,04,27,04,13,10.80
2018,04,27,04,14,10.70
2018,04,27,04,15,10.70
2018,04,27,04,16,10.70
2018,04,27,04,17,10.60
2018,04,27,04,18,10.60
2018,04,27,04,19,10.60
2018,04,27,04,20,10.60
2018,04,27,04,21,10.50
2018,04,27,04,22,10.50
2018,04,27,04,23,10.50
2018,04,27,04,24,10.40
2018,04,27,04,25,10.40
2018,04,27,04,26,10.40
2018,04,27,04,27,10.40
2018,04,27,04,28,10.30
2018,04,27,04,29,10.30
2018,04,27,04,30,10.30
2018,04,27,04,31,10.30
2018,04,27,04,32,10.30
2018,04,27,04,33,10.30
2018,04,27,04,34,10.20
2018,04,27,04,35,10.20
2018,04,27,04,36,10.20
2018,04,27,04,37,10.20
2018,04,27,04,38,10.20
2018,04,27,04,39,10.20
2018,04,27,04,40,10.10
2018,04,27,04,41,10.10
2018,04,27,04,42,10.10
2018,04,27,04,43,10.10
2018,04,27,04,44,10.10
2018,04,27,04,45,10.00
2018,04,27,04,46,10.00
2018,04,27,04,47,10.00
2018,04,27,04,48,10.00
2018,04,27,04,49,9.90
2018,04,27,04,50,9.90
2018,04,27,04,51,9.90
2018,04,27,04,52,9.90
2018,04,27,04,53,9.90
2018,04,27,04,54,9.90
2018,04,27,04,55,9.90
2018,04,27,04,56,9.90
2018,04,27,04,57,9.90
2018,04,27,04,58,9.90
2018,04,27,04,59,9.80
2018,04,27,05,00,9.80
2018,04,27,05,01,9.80
2018,04,27,05,02,9.80
2018,04,27,05,03,9.80
2018,04,27,05,04,9.80
2018,04,27,05,05,9.70
2018,04,27,05,06,9.70
2018,04,27,05,07,9.70
2018,04,27,05,08,9.70
2018,04,27,05,09,9.70
2018,04,27,05,10,9.70
2018,04,27,05,11,9.70
2018,04,27,05,12,9.70
2018,04,27,05,13,9.70
2018,04,27,05,14,9.80
2018,04,27,05,15,9.80
2018,04,27,05,16,9.80
2018,04,27,05,17,9.80
2018,04,27,05,18,9.80
2018,04,27,05,19,9.80
2018,04,27,05,20,9.80
2018,04,27,05,21,9.80
2018,04,27,05,22,9.80
2018,04,27,05,23,9.80
2018,04,27,05,24,9.90
2018,04,27,05,25,9.90
2018,04,27,05,26,10.00
2018,04,27,05,27,10.10
2018,04,27,05,28,10.10
2018,04,27,05,29,10.20
2018,04,27,05,30,10.30
2018,04,27,05,31,10.30
2018,04,27,05,32,10.30
2018,04,27,05,33,10.30
2018,04,27,05,34,10.30
2018,04,27,05,35,10.20
2018,04,27,05,36,10.20
2018,04,27,05,37,10.20
2018,04,27,05,38,10.20
2018,04,27,05,39,10.20
2018,04,27,05,40,10.20
2018,04,27,05,41,10.20
2018,04,27,05,42,10.20
2018,04,27,05,43,10.20
2018,04,27,05,44,10.10
2018,04,27,05,45,10.10
2018,04,27,05,46,10.10
2018,04,27,05,47,10.00
2018,04,27,05,48,10.00
2018,04,27,05,49,9.90
2018,04,27,05,50,9.90
2018,04,27,05,51,9.90
2018,04,27,05,52,9.90
2018,04,27,05,53,9.90
2018,04,27,05,54,9.90
2018,04,27,05,55,9.80
2018,04,27,05,56,9.80
2018,04,27,05,57,9.80
2018,04,27,05,58,9.80
2018,04,27,05,59,9.80
2018,04,27,06,00,9.80
2018,04,27,06,01,9.70
2018,04,27,06,02,9.70
2018,04,27,06,03,9.60
2018,04,27,06,04,9.60
2018,04,27,06,05,9.60
2018,04,27,06,06,9.60
2018,04,27,06,07,9.50
2018,04,27,06,08,9.50
2018,04,27,06,09,9.50
2018,04,27,06,10,9.40
2018,04,27,06,11,9.40
2018,04,27,06,12,9.40
2018,04,27,06,13,9.40
2018,04,27,06,14,9.40
2018,04,27,06,15,9.30
2018,04,27,06,16,9.30
2018,04,27,06,17,9.30
2018,04,27,06,18,9.30
2018,04,27,06,19,9.30
2018,04,27,06,20,9.30
2018,04,27,06,21,9.20
2018,04,27,06,22,9.20
2018,04,27,06,23,9.20
2018,04,27,06,24,9.20
2018,04,27,06,25,9.20
2018,04,27,06,26,9.20
2018,04,27,06,27,9.20
2018,04,27,06,28,9.10
2018,04,27,06,29,9.10
2018,04,27,06,30,9.10
2018,04,27,06,31,9.20
2018,04,27,06,32,9.20
2018,04,27,06,33,9.20
2018,04,27,06,34,9.20
2018,04,27,06,35,9.20
2018,04,27,06,36,9.20
2018,04,27,06,37,9.20
2018,04,27,06,38,9.30
2018,04,27,06,39,9.30
2018,04,27,06,40,9.30
2018,04,27,06,41,9.40
2018,04,27,06,42,9.40
2018,04,27,06,43,9.40
2018,04,27,06,44,9.50
2018,04,27,06,45,9.50
2018,04,27,06,46,9.50
2018,04,27,06,47,9.60
2018,04,27,06,48,9.60
2018,04,27,06,49,9.60
2018,04,27,06,50,9.60
2018,04,27,06,51,9.60
2018,04,27,06,52,9.60
2018,04,27,06,53,9.60
2018,04,27,06,54,9.60
2018,04,27,06,55,9.70
2018,04,27,06,56,9.70
2018,04,27,06,57,9.70
2018,04,27,06,58,9.80
2018,04,27,06,59,9.80
2018,04,27,07,00,9.90
2018,04,27,07,01,10.00
2018,04,27,07,02,10.00
2018,04,27,07,03,10.10
2018,04,27,07,04,10.10
2018,04,27,07,05,10.10
2018,04,27,07,06,10.10
2018,04,27,07,07,10.20
2018,04,27,07,08,10.20
2018,04,27,07,09,10.30
2018,04,27,07,10,10.30
2018,04,27,07,11,10.40
2018,04,27,07,12,10.40
2018,04,27,07,13,10.50
2018,04,27,07,14,10.60
2018,04,27,07,15,10.70
2018,04,27,07,16,10.70
2018,04,27,07,17,10.70
2018,04,27,07,18,10.80
2018,04,27,07,19,10.80
2018,04,27,07,20,10.90
2018,04,27,07,21,11.00
2018,04,27,07,22,11.10
2018,04,27,07,23,11.20
2018,04,27,07,24,11.30
2018,04,27,07,25,11.40
2018,04,27,07,26,11.50
2018,04,27,07,27,11.60
2018,04,27,07,28,11.70
2018,04,27,07,29,11.80
2018,04,27,07,30,11.90
2018,04,27,07,31,11.90
2018,04,27,07,32,12.00
2018,04,27,07,33,12.10
2018,04,27,07,34,12.10
2018,04,27,07,35,12.10
2018,04,27,07,36,12.10
2018,04,27,07,37,12.10
2018,04,27,07,38,12.10
2018,04,27,07,39,12.10
2018,04,27,07,40,12.10
2018,04,27,07,41,12.00
2018,04,27,07,42,12.00
2018,04,27,07,43,12.00
2018,04,27,07,44,11.90
2018,04,27,07,45,11.90
2018,04,27,07,46,11.90
2018,04,27,07,47,11.80
2018,04,27,07,48,11.80
2018,04,27,07,49,11.80
2018,04,27,07,50,11.90
2018,04,27,07,51,11.90
2018,04,27,07,52,11.90
2018,04,27,07,53,11.90
2018,04,27,07,54,11.90
2018,04,27,07,55,12.00
2018,04,27,07,56,12.00
2018,04,27,07,57,12.10
2018,04,27,07,58,12.10
2018,04,27,07,59,12.20
2018,04,27,08,00,12.20
2018,04,27,08,01,12.20
2018,04,27,08,02,12.30
2018,04,27,08,03,12.30
2018,04,27,08,04,12.30
2018,04,27,08,05,12.30
2018,04,27,08,06,12.40
2018,04,27,08,07,12.50
2018,04,27,08,08,12.50
2018,04,27,08,09,12.60
2018,04,27,08,10,12.60
2018,04,27,08,11,12.70
2018,04,27,08,12,12.80
2018,04,27,08,13,12.80
2018,04,27,08,14,12.90
2018,04,27,08,15,13.00
2018,04,27,08,16,13.00
2018,04,27,08,17,13.10
2018,04,27,08,18,13.20
2018,04,27,08,19,13.30
2018,04,27,08,20,13.40
2018,04,27,08,21,13.60
2018,04,27,08,22,13.70
2018,04,27,08,23,13.80
2018,04,27,08,24,13.80
2018,04,27,08,25,14.00
2018,04,27,08,26,14.00
2018,04,27,08,27,14.10
2018,04,27,08,28,14.20
2018,04,27,08,29,14.30
2018,04,27,08,30,14.40
2018,04,27,08,31,14.50
2018,04,27,08,32,14.60
2018,04,27,08,33,14.70
2018,04,27,08,34,14.90
2018,04,27,08,35,15.00
2018,04,27,08,36,15.10
2018,04,27,08,37,15.20
2018,04,27,08,38,15.20
2018,04,27,08,39,15.30
2018,04,27,08,40,15.40
2018,04,27,08,41,15.40
2018,04,27,08,42,15.40
2018,04,27,08,43,15.50
2018,04,27,08,44,15.50
2018,04,27,08,45,15.50
2018,04,27,08,46,15.50
2018,04,27,08,47,15.50
2018,04,27,08,48,15.50
2018,04,27,08,49,15.50
2018,04,27,08,50,15.50
2018,04,27,08,51,15.50
2018,04,27,08,52,15.50
2018,04,27,08,53,15.60
2018,04,27,08,54,15.60
2018,04,27,08,55,15.60
2018,04,27,08,56,15.60
2018,04,27,08,57,15.70
2018,04,27,08,58,15.70
2018,04,27,08,59,15.70
2018,04,27,09,00,15.80
2018,04,27,09,01,15.80
2018,04,27,09,02,15.80
2018,04,27,09,03,15.80
2018,04,27,09,04,15.80
2018,04,27,09,05,15.90
2018,04,27,09,06,15.90
2018,04,27,09,07,15.90
2018,04,27,09,08,15.90
2018,04,27,09,09,16.00
2018,04,27,09,10,16.00
2018,04,27,09,11,16.00
2018,04,27,09,12,16.00
2018,04,27,09,13,16.00
2018,04,27,09,14,16.00
2018,04,27,09,15,16.10
2018,04,27,09,16,16.10
2018,04,27,09,17,16.10
2018,04,27,09,18,16.20
2018,04,27,09,19,16.20
2018,04,27,09,20,16.20
2018,04,27,09,21,16.20
2018,04,27,09,22,16.30
2018,04,27,09,23,16.30
2018,04,27,09,24,16.30
2018,04,27,09,25,16.30
2018,04,27,09,26,16.30
2018,04,27,09,27,16.40
2018,04,27,09,28,16.40
2018,04,27,09,29,16.50
2018,04,27,09,30,16.50
2018,04,27,09,31,16.60
2018,04,27,09,32,16.60
2018,04,27,09,33,16.70
2018,04,27,09,34,16.70
2018,04,27,09,35,16.80
2018,04,27,09,36,16.80
2018,04,27,09,37,16.90
2018,04,27,09,38,16.90
2018,04,27,09,39,17.00
2018,04,27,09,40,17.00
2018,04,27,09,41,17.10
2018,04,27,09,42,17.10
2018,04,27,09,43,17.20
2018,04,27,09,44,17.30
2018,04,27,09,45,17.30
2018,04,27,09,46,17.30
2018,04,27,09,47,17.30
2018,04,27,09,48,17.40
2018,04,27,09,49,17.40
2018,04,27,09,50,17.40
2018,04,27,09,51,17.40
2018,04,27,09,52,17.40
2018,04,27,09,53,17.40
2018,04,27,09,54,17.50
2018,04,27,09,55,17.60
2018,04,27,09,56,17.60
2018,04,27,09,57,17.70
2018,04,27,09,58,17.70
2018,04,27,09,59,17.80
2018,04,27,10,00,17.80
2018,04,27,10,01,17.90
2018,04,27,10,02,17.90
2018,04,27,10,03,17.90
2018,04,27,10,04,17.90
2018,04,27,10,05,18.00
2018,04,27,10,06,18.00
2018,04,27,10,07,18.00
2018,04,27,10,08,18.10
2018,04,27,10,09,18.20
2018,04,27,10,10,18.20
2018,04,27,10,11,18.20
2018,04,27,10,12,18.30
2018,04,27,10,13,18.30
2018,04,27,10,14,18.40
2018,04,27,10,15,18.40
2018,04,27,10,16,18.50
2018,04,27,10,17,18.50
2018,04,27,10,18,18.50
2018,04,27,10,19,18.60
2018,04,27,10,20,18.60
2018,04,27,10,21,18.70
2018,04,27,10,22,18.70
2018,04,27,10,23,18.70
2018,04,27,10,24,18.70
2018,04,27,10,25,18.70
2018,04,27,10,26,18.70
2018,04,27,10,27,18.80
2018,04,27,10,28,18.80
2018,04,27,10,29,18.80
2018,04,27,10,30,18.90
2018,04,27,10,31,18.90
2018,04,27,10,32,18.90
2018,04,27,10,33,18.90
2018,04,27,10,34,19.00
2018,04,27,10,35,19.00
2018,04,27,10,36,19.10
2018,04,27,10,37,19.10
2018,04,27,10,38,19.10
2018,04,27,10,39,19.10
2018,04,27,10,40,19.20
2018,04,27,10,41,19.20
2018,04,27,10,42,19.20
2018,04,27,10,43,19.20
2018,04,27,10,44,19.20
2018,04,27,10,45,19.30
2018,04,27,10,46,19.30
2018,04,27,10,47,19.40
2018,04,27,10,48,19.40
2018,04,27,10,49,19.50
2018,04,27,10,50,19.60
2018,04,27,10,51,19.70
2018,04,27,10,52,19.70
2018,04,27,10,53,19.80
2018,04,27,10,54,19.80
2018,04,27,10,55,19.80
2018,04,27,10,56,19.80
2018,04,27,10,57,19.70
2018,04,27,10,58,19.70
2018,04,27,10,59,19.70
2018,04,27,11,00,19.70
2018,04,27,11,01,19.60
2018,04,27,11,02,19.60
2018,04,27,11,03,19.60
2018,04,27,11,04,19.60
2018,04,27,11,05,19.60
2018,04,27,11,06,19.60
2018,04,27,11,07,19.70
2018,04,27,11,08,19.80
2018,04,27,11,09,19.80
2018,04,27,11,10,19.90
2018,04,27,11,11,19.90
2018,04,27,11,12,20.00
2018,04,27,11,13,20.10
2018,04,27,11,14,20.10
2018,04,27,11,15,20.10
2018,04,27,11,16,20.20
2018,04,27,11,17,20.20
2018,04,27,11,18,20.10
2018,04,27,11,19,20.10
2018,04,27,11,20,20.00
2018,04,27,11,21,20.00
2018,04,27,11,22,20.00
2018,04,27,11,23,20.00
2018,04,27,11,24,20.00
2018,04,27,11,25,20.00
2018,04,27,11,26,20.10
2018,04,27,11,27,20.10
2018,04,27,11,28,20.10
2018,04,27,11,29,20.10
2018,04,27,11,30,20.00
2018,04,27,11,31,20.00
2018,04,27,11,32,20.00
2018,04,27,11,33,20.00
2018,04,27,11,34,20.00
2018,04,27,11,35,20.00
2018,04,27,11,36,20.10
2018,04,27,11,37,20.10
2018,04,27,11,38,20.10
2018,04,27,11,39,20.10
2018,04,27,11,40,20.10
2018,04,27,11,41,20.20
2018,04,27,11,42,20.30
2018,04,27,11,43,20.30
2018,04,27,11,44,20.40
2018,04,27,11,45,20.40
2018,04,27,11,46,20.50
2018,04,27,11,47,20.50
2018,04,27,11,48,20.60
2018,04,27,11,49,20.60
2018,04,27,11,50,20.60
2018,04,27,11,51,20.60
2018,04,27,11,52,20.60
2018,04,27,11,53,20.60
2018,04,27,11,54,20.70
2018,04,27,11,55,20.70
2018,04,27,11,56,20.80
2018,04,27,11,57,20.80
2018,04,27,11,58,20.90
2018,04,27,11,59,20.90
2018,04,27,12,00,21.00
2018,04,27,12,01,21.00
2018,04,27,12,02,21.10
2018,04,27,12,03,21.10
2018,04,27,12,04,21.20
2018,04,27,12,05,21.20
2018,04,27,12,06,21.20
2018,04,27,12,07,21.30
2018,04,27,12,08,21.40
2018,04,27,12,09,21.40
2018,04,27,12,10,21.40
2018,04,27,12,11,21.50
2018,04,27,12,12,21.50
2018,04,27,12,13,21.60
2018,04,27,12,14,21.70
2018,04,27,12,15,21.70
2018,04,27,12,16,21.80
2018,04,27,12,17,21.90
2018,04,27,12,18,21.90
2018,04,27,12,19,22.00
2018,04,27,12,20,22.10
2018,04,27,12,21,22.20
2018,04,27,12,22,22.20
2018,04,27,12,23,22.20
2018,04,27,12,24,22.30
2018,04,27,12,25,22.30
2018,04,27,12,26,22.20
2018,04,27,12,27,22.20
2018,04,27,12,28,22.30
2018,04,27,12,29,22.30
2018,04,27,12,30,22.40
2018,04,27,12,31,22.40
2018,04,27,12,32,22.50
2018,04,27,12,33,22.60
2018,04,27,12,34,22.70
2018,04,27,12,35,22.70
2018,04,27,12,36,22.80
2018,04,27,12,37,22.90
2018,04,27,12,38,22.90
2018,04,27,12,39,22.90
2018,04,27,12,40,22.80
2018,04,27,12,41,22.80
2018,04,27,12,42,22.90
2018,04,27,12,43,22.90
2018,04,27,12,44,22.90
2018,04,27,12,45,22.90
2018,04,27,12,46,22.90
2018,04,27,12,47,22.90
2018,04,27,12,48,22.90
2018,04,27,12,49,22.90
2018,04,27,12,50,22.80
2018,04,27,12,51,22.80
2018,04,27,12,52,22.70
2018,04,27,12,53,22.70
2018,04,27,12,54,22.70
2018,04,27,12,55,22.70
2018,04,27,12,56,22.70
2018,04,27,12,57,22.60
2018,04,27,12,58,22.60
2018,04,27,12,59,22.60
2018,04,27,13,00,22.50
2018,04,27,13,01,22.50
2018,04,27,13,02,22.50
2018,04,27,13,03,22.50
2018,04,27,13,04,22.50
2018,04,27,13,05,22.50
2018,04,27,13,06,22.50
2018,04,27,13,07,22.50
2018,04,27,13,08,22.60
2018,04,27,13,09,22.60
2018,04,27,13,10,22.60
2018,04,27,13,11,22.70
2018,04,27,13,12,22.70
2018,04,27,13,13,22.90
2018,04,27,13,14,23.00
2018,04,27,13,15,23.10
2018,04,27,13,16,23.10
2018,04,27,13,17,23.20
2018,04,27,13,18,23.30
2018,04,27,13,19,23.30
2018,04,27,13,20,23.40
2018,04,27,13,21,23.40
2018,04,27,13,22,23.50
2018,04,27,13,23,23.60
2018,04,27,13,24,23.70
2018,04,27,13,25,23.90
2018,04,27,13,26,24.00
2018,04,27,13,27,24.20
2018,04,27,13,28,24.30
2018,04,27,13,29,24.40
2018,04,27,13,30,24.50
2018,04,27,13,31,24.60
2018,04,27,13,32,24.60
2018,04,27,13,33,24.60
2018,04,27,13,34,24.50
2018,04,27,13,35,24.50
2018,04,27,13,36,24.50
2018,04,27,13,37,24.50
2018,04,27,13,38,24.40
2018,04,27,13,39,24.40
2018,04,27,13,40,24.40
2018,04,27,13,41,24.30
2018,04,27,13,42,24.20
2018,04,27,13,43,24.20
2018,04,27,13,44,24.20
2018,04,27,13,45,24.20
2018,04,27,13,46,24.20
2018,04,27,13,47,24.20
2018,04,27,13,48,24.20
2018,04,27,13,49,24.30
2018,04,27,13,50,24.30
2018,04,27,13,51,24.40
2018,04,27,13,52,24.50
2018,04,27,13,53,24.60
2018,04,27,13,54,24.70
2018,04,27,13,55,24.60
2018,04,27,13,56,24.60
2018,04,27,13,57,24.50
2018,04,27,13,58,24.50
2018,04,27,13,59,24.40
2018,04,27,14,00,24.30
2018,04,27,14,01,24.30
2018,04,27,14,02,24.30
2018,04,27,14,03,24.30
2018,04,27,14,04,24.30
2018,04,27,14,05,24.30
2018,04,27,14,06,24.30
2018,04,27,14,07,24.30
2018,04,27,14,08,24.30
2018,04,27,14,09,24.30
2018,04,27,14,10,24.30
2018,04,27,14,11,24.30
2018,04,27,14,12,24.30
2018,04,27,14,13,24.30
2018,04,27,14,14,24.30
2018,04,27,14,15,24.30
2018,04,27,14,16,24.30
2018,04,27,14,17,24.30
2018,04,27,14,18,24.30
2018,04,27,14,19,24.30
2018,04,27,14,20,24.30
2018,04,27,14,21,24.30
2018,04,27,14,22,24.30
2018,04,27,14,23,24.20
2018,04,27,14,24,24.20
2018,04,27,14,25,24.20
2018,04,27,14,26,24.30
2018,04,27,14,27,24.20
2018,04,27,14,28,24.20
2018,04,27,14,29,24.30
2018,04,27,14,30,24.30
2018,04,27,14,31,24.30
2018,04,27,14,32,24.30
2018,04,27,14,33,24.30
2018,04,27,14,34,24.20
2018,04,27,14,35,24.20
2018,04,27,14,36,24.10
2018,04,27,14,37,24.10
2018,04,27,14,38,23.90
2018,04,27,14,39,23.80
2018,04,27,14,40,23.70
2018,04,27,14,41,23.80
2018,04,27,14,42,23.80
2018,04,27,14,43,23.90
2018,04,27,14,44,23.90
2018,04,27,14,45,23.80
2018,04,27,14,46,23.80
2018,04,27,14,47,23.70
2018,04,27,14,48,23.60
2018,04,27,14,49,23.70
2018,04,27,14,50,23.70
2018,04,27,14,51,23.70
2018,04,27,14,52,23.70
2018,04,27,14,53,23.70
2018,04,27,14,54,23.70
2018,04,27,14,55,23.60
2018,04,27,14,56,23.60
2018,04,27,14,57,23.60
2018,04,27,14,58,23.60
2018,04,27,14,59,23.60
2018,04,27,15,00,23.60
2018,04,27,15,01,23.70
2018,04,27,15,02,23.70
2018,04,27,15,03,23.70
2018,04,27,15,04,23.70
2018,04,27,15,05,23.70
2018,04,27,15,06,23.80
2018,04,27,15,07,23.80
2018,04,27,15,08,23.80
2018,04,27,15,09,23.90
2018,04,27,15,10,23.80
2018,04,27,15,11,23.80
2018,04,27,15,12,23.80
2018,04,27,15,13,23.70
2018,04,27,15,14,23.60
2018,04,27,15,15,23.50
2018,04,27,15,16,23.40
2018,04,27,15,17,23.30
2018,04,27,15,18,23.20
2018,04,27,15,19,23.10
2018,04,27,15,20,23.00
2018,04,27,15,21,22.90
2018,04,27,15,22,22.90
2018,04,27,15,23,22.80
2018,04,27,15,24,22.80
2018,04,27,15,25,22.80
2018,04,27,15,26,22.80
2018,04,27,15,27,22.80
2018,04,27,15,28,22.80
2018,04,27,15,29,22.80
2018,04,27,15,30,22.80
2018,04,27,15,31,22.80
2018,04,27,15,32,22.80
2018,04,27,15,33,22.80
2018,04,27,15,34,22.70
2018,04,27,15,35,22.70
2018,04,27,15,36,22.80
2018,04,27,15,37,22.80
2018,04,27,15,38,22.90
2018,04,27,15,39,22.90
2018,04,27,15,40,22.90
2018,04,27,15,41,22.80
2018,04,27,15,42,22.90
2018,04,27,15,43,23.00
2018,04,27,15,44,23.00
2018,04,27,15,45,23.00
2018,04,27,15,46,22.90
2018,04,27,15,47,22.90
2018,04,27,15,48,22.90
2018,04,27,15,49,22.90
2018,04,27,15,50,22.80
2018,04,27,15,51,22.80
2018,04,27,15,52,22.80
2018,04,27,15,53,22.80
2018,04,27,15,54,22.80
2018,04,27,15,55,22.90
2018,04,27,15,56,22.90
2018,04,27,15,57,23.00
2018,04,27,15,58,23.00
2018,04,27,15,59,23.00
2018,04,27,16,00,23.00
2018,04,27,16,01,23.00
2018,04,27,16,02,23.00
2018,04,27,16,03,23.00
2018,04,27,16,04,23.00
2018,04,27,16,05,23.00
2018,04,27,16,06,23.00
2018,04,27,16,07,22.90
2018,04,27,16,08,22.90
2018,04,27,16,09,22.80
2018,04,27,16,10,22.80
2018,04,27,16,11,22.70
2018,04,27,16,12,22.70
2018,04,27,16,13,22.70
2018,04,27,16,14,22.70
2018,04,27,16,15,22.60
2018,04,27,16,16,22.50
2018,04,27,16,17,22.50
2018,04,27,16,18,22.50
2018,04,27,16,19,22.50
2018,04,27,16,20,22.40
2018,04,27,16,21,22.20
2018,04,27,16,22,22.10
2018,04,27,16,23,21.90
2018,04,27,16,24,21.80
2018,04,27,16,25,21.70
2018,04,27,16,26,21.60
2018,04,27,16,27,21.60
2018,04,27,16,28,21.50
2018,04,27,16,29,21.30
2018,04,27,16,30,21.20
2018,04,27,16,31,21.00
2018,04,27,16,32,20.90
2018,04,27,16,33,20.80
2018,04,27,16,34,20.70
2018,04,27,16,35,20.60
2018,04,27,16,36,20.60
2018,04,27,16,37,20.50
2018,04,27,16,38,20.40
2018,04,27,16,39,20.30
2018,04,27,16,40,20.20
2018,04,27,16,41,20.10
2018,04,27,16,42,19.90
2018,04,27,16,43,19.80
2018,04,27,16,44,19.70
2018,04,27,16,45,19.70
2018,04,27,16,46,19.60
2018,04,27,16,47,19.50
2018,04,27,16,48,19.50
2018,04,27,16,49,19.40
2018,04,27,16,50,19.40
2018,04,27,16,51,19.40
2018,04,27,16,52,19.40
2018,04,27,16,53,19.40
2018,04,27,16,54,19.40
2018,04,27,16,55,19.30
2018,04,27,16,56,19.30
2018,04,27,16,57,19.20
2018,04,27,16,58,19.20
2018,04,27,16,59,19.20
2018,04,27,17,00,19.10
2018,04,27,17,01,19.10
2018,04,27,17,02,19.10
2018,04,27,17,03,19.00
2018,04,27,17,04,19.00
2018,04,27,17,05,19.00
2018,04,27,17,06,18.90
2018,04,27,17,07,18.80
2018,04,27,17,08,18.70
2018,04,27,17,09,18.60
2018,04,27,17,10,18.50
2018,04,27,17,11,18.40
2018,04,27,17,12,18.30
2018,04,27,17,13,18.30
2018,04,27,17,14,18.20
2018,04,27,17,15,18.10
2018,04,27,17,16,18.10
2018,04,27,17,17,18.10
2018,04,27,17,18,18.10
2018,04,27,17,19,18.10
2018,04,27,17,20,18.10
2018,04,27,17,21,18.00
2018,04,27,17,22,17.90
2018,04,27,17,23,17.90
2018,04,27,17,24,17.80